Weather in Uzha

Russia / Bryansk Oblast     52°36′19″N   33°33′46″E
temp.,
°C
wind,
m/s
gust,
m/s
humid.,
%
clouds,
%
prec.,
mm/h
press.,
hPa
HPBL,
m
14 april, wed
wed1400:00+11sse3684100 0.0 1018198
03:00+9sse36955 0.0 1018168
06:00+9sse3692100 0.0 1018196
09:00+10sse3682100 0.0 1018365
12:00+14sse4561100 0.1 10171330
15:00+16s4549100 0.3 10161784
18:00+15se3559100 0.0 1015221
21:00+12ese3474100 0.3 101669
15 april, thu
thu1500:00+11ese2277100 0.1 101519
03:00+10ese2385100 0.7 101567
06:00+9n2395100 4.8 101489
09:00+11ene2389100 6.3 1014248
12:00+12e5576100 0.9 1013625
15:00+13e4571100 1.7 1012859
18:00+12e467970 0.8 1012444
21:00+10e4992100 1.6 1012245
16 april, fri
fri1600:00+9ene339147 0.3 101250
03:00+9e3689100 0.3 1012168
06:00+8ese2594100 0.1 1012210
09:00+11ese468181 0.4 1013670
12:00+12se576696 1.4 10131235
15:00+13se5760100 1.9 10141275
18:00+11s467098 0.3 1015663
21:00+7se22806 0.3 101614
17 april, sat
sat1700:00+6e34866 0.0 101771
03:00+5ese359116 0.0 1018127
06:00+4ese3593100 0.0 1020115
09:00+8ese1169100 0.0 1020281
12:00+10ese4563100 0.0 10221074
15:00+12ese3453100 0.0 10221378
18:00+11e125898 0.0 1021829
21:00+7ssw128075 0.0 102316
18 april, sun
sun1800:00+6sw118398 0.0 102410
03:00+5se01863 0.0 102410
06:00+4ssw11875 0.0 102510
09:00+8nne227276 0.0 1026272
12:00+12ene346695 0.0 1026995
15:00+14ese6868100 0.5 10261137
18:00+14ese6961100 0.1 1024726
21:00+11e51078100 0.1 1026459